Theta_e
313 317 320 320 320 318 320 320 319 318 318 317 318 318 319 318 318 318 319 319 320 321 323 328 343 350 352 352 351 351 352 353 353 354 353 351 352 350 349 349 350 350 349 348
314 316 317 318 319 319 319 320 320 319 317 317 319 319 318 318 318 318 319 320 320 321 325 337 346 351 350 352 352 351 351 353 352 352 352 351 350 349 349 349 349 348 348 348
316 315 314 317 319 320 320 320 321 321 319 317 319 319 319 318 318 318 319 320 321 321 322 326 340 346 350 352 352 351 352 353 352 353 352 349 349 348 348 348 348 347 347 348
316 315 315 315 319 320 322 319 319 319 319 320 319 321 320 320 319 319 319 319 320 321 322 322 325 337 344 349 351 351 352 352 351 350 349 349 349 350 348 349 347 346 344 343
315 315 316 316 317 319 320 319 318 318 319 319 319 320 322 321 320 319 319 319 320 321 321 322 323 330 339 344 346 346 347 348 347 347 348 348 348 348 345 343 341 341 338 336
314 314 316 317 317 318 319 319 319 318 318 320 320 320 322 320 320 319 319 322 325 327 326 324 324 334 339 341 342 343 344 345 345 346 347 348 347 345 343 342 340 337 335 332
311 313 315 316 318 318 319 321 323 321 321 322 320 320 321 324 325 320 325 330 331 330 327 327 332 337 339 341 342 341 340 340 341 342 342 343 342 341 339 337 334 331 329 326
313 313 314 316 318 320 321 321 322 324 324 322 320 321 323 331 332 330 333 332 331 331 331 333 334 334 335 337 337 337 337 338 337 336 335 334 332 330 329 328 327 325 323 321
314 313 313 316 319 319 320 320 320 322 322 322 320 324 331 333 331 331 332 330 328 328 330 333 334 334 335 336 335 335 334 332 330 329 328 327 326 325 324 322 321 319 318 317
318 318 314 318 318 319 319 319 320 322 324 324 321 323 324 334 332 331 330 329 327 328 328 328 329 330 330 330 331 330 329 328 327 326 325 323 321 320 319 318 317 316 315 314
318 321 317 315 320 321 320 320 320 321 322 324 323 324 327 332 333 331 329 327 329 329 328 328 328 328 327 327 325 324 323 322 321 320 319 318 318 317 316 315 315 314 314 313
318 323 320 317 319 319 320 321 321 321 323 322 325 336 331 334 331 329 327 326 325 324 323 322 321 320 319 320 320 319 319 318 317 317 316 316 316 315 315 314 313 313 312 312
318 326 327 325 324 321 322 321 320 320 321 326 326 338 331 330 327 324 322 321 320 319 317 317 318 317 317 317 317 316 316 315 315 315 315 315 314 314 313 313 312 311 311 311
318 324 323 328 327 326 323 322 320 322 324 325 325 336 333 327 323 321 319 318 317 317 317 317 318 317 315 314 314 313 313 313 313 313 313 313 312 312 311 310 310 310 310 311
323 327 323 326 325 326 325 320 320 320 321 324 333 335 332 326 323 321 319 318 318 318 318 317 316 315 313 312 311 311 310 310 310 310 310 310 310 309 309 309 309 310 310 311
323 327 325 328 324 322 322 321 320 319 321 327 331 337 328 323 319 319 319 320 319 318 316 315 313 312 311 310 309 309 308 307 307 307 307 307 307 308 308 308 309 310 311 312
322 328 330 329 326 326 325 322 320 320 325 329 334 331 323 320 319 319 319 319 318 316 314 313 311 309 308 307 307 306 305 305 305 305 305 306 306 307 308 308 309 310 312 312
323 329 330 330 328 334 326 321 320 319 328 330 331 326 323 320 319 317 316 317 314 312 311 309 307 306 304 304 304 304 304 304 304 304 305 305 306 307 307 308 309 310 312 312
326 328 330 332 331 327 325 320 320 326 331 330 328 323 319 316 313 312 313 312 310 308 305 302 303 303 302 302 303 303 303 303 304 304 304 304 304 305 306 307 309 310 310 311
326 328 329 331 330 335 331 326 325 325 331 328 327 323 317 315 318 308 306 305 305 301 298 298 297 301 301 301 301 302 303 303 303 302 302 302 303 304 305 307 308 309 310 310
327 329 331 330 331 329 315 319 322 329 327 324 321 317 316 322 317 305 303 301 299 300 298 296 297 297 298 298 300 300 301 301 301 301 301 302 303 304 305 306 307 308 308 310
320 325 326 330 330 334 309 323 328 323 321 318 317 317 313 308 307 304 301 299 298 297 297 295 295 295 296 296 298 299 300 299 300 300 301 301 302 302 304 306 307 306 306 306
321 315 318 313 312 307 308 316 318 319 318 316 313 311 309 307 304 302 299 298 295 294 294 295 296 296 295 295 296 298 297 298 298 299 299 300 301 302 303 305 306 304 303 304
313 310 311 311 302 304 305 306 311 312 311 308 307 307 305 303 300 299 298 297 296 296 296 296 296 295 295 295 295 295 295 296 297 297 297 297 297 299 303 304 303 301 299 300
305 308 307 304 302 301 300 301 301 302 300 299 297 297 297 297 297 297 298 297 297 296 294 294 293 294 294 294 295 294 294 295 296 297 296 295 294 297 300 299 299 299 293 292
301 307 313 304 300 299 297 298 298 298 297 297 297 297 297 297 299 298 297 296 295 294 293 292 292 293 293 294 294 294 293 293 293 295 295 293 294 293 295 298 298 294 292 291
Wind_Speed
20 19 27 33 30 24 18 21 23 14 14 24 25 21 17 12 12 16 18 15 13 14 14 12 13 17 21 20 19 18 17 16 17 16 16 15 14 13 11 11 9 8 7 6
14 30 32 27 26 25 25 15 18 14 12 19 20 21 21 19 16 13 14 15 14 16 12 10 12 18 21 23 22 20 18 17 17 15 13 10 11 9 8 7 6 6 5 6
23 19 28 24 25 25 26 20 16 20 15 16 12 18 19 18 18 17 16 15 15 15 14 13 13 15 17 21 20 19 18 17 16 13 12 9 8 5 6 7 7 5 6 8
26 21 16 30 29 26 26 22 13 17 18 12 17 10 21 19 18 18 18 15 14 14 11 10 9 15 14 13 14 16 16 16 14 14 11 10 8 7 4 4 3 2 1 3
22 23 24 25 28 27 22 21 15 14 14 7 16 9 16 21 20 19 19 19 14 9 9 8 5 8 13 14 15 15 16 15 13 12 10 11 8 7 6 4 5 5 4 4
24 16 17 21 25 26 21 25 19 14 10 10 15 16 15 15 21 19 20 10 9 8 7 6 8 12 15 15 15 16 16 14 12 11 9 8 8 7 6 4 4 4 4 5
24 26 18 16 22 21 26 25 14 13 11 13 21 13 4 12 3 16 14 12 8 7 9 12 13 12 14 15 17 17 17 16 13 12 11 10 10 11 11 8 8 8 7 7
21 23 24 19 21 19 32 31 19 32 20 16 18 11 12 13 7 7 11 9 9 8 10 12 12 14 16 16 16 18 19 20 18 18 18 18 16 15 14 11 9 10 8 8
18 18 23 19 18 24 32 27 24 17 17 15 11 7 7 16 11 12 13 13 13 12 12 14 16 18 19 20 20 22 23 23 21 21 20 19 17 15 14 12 11 10 10 7
6 11 27 21 24 25 23 28 20 11 23 18 14 17 11 17 14 14 14 14 15 16 18 17 16 21 23 25 25 25 23 23 20 19 17 17 16 14 14 13 13 11 8 7
9 11 18 24 15 26 19 20 18 12 12 10 12 13 9 20 18 18 16 17 18 19 19 18 17 25 26 26 25 24 22 21 20 18 17 16 15 14 14 13 10 8 7 8
6 5 20 30 17 25 22 29 24 14 14 10 11 7 4 19 16 17 18 18 19 20 19 19 19 25 24 24 23 23 21 20 18 16 16 15 14 12 12 10 8 7 7 8
4 6 18 6 7 21 25 25 21 14 10 9 13 8 10 16 17 17 20 19 19 20 20 18 17 20 22 22 21 21 19 17 15 14 14 13 11 10 9 8 7 7 8 8
4 10 15 10 18 23 28 30 23 14 13 16 11 18 17 17 19 19 19 20 20 19 18 18 17 18 21 20 19 18 16 15 13 12 11 10 9 9 8 7 7 7 7 8
3 11 6 9 18 24 28 28 27 16 12 15 20 23 20 20 20 20 20 21 21 20 19 17 16 14 19 18 17 15 14 12 10 10 10 10 9 8 8 9 8 8 8 8
8 7 10 10 16 23 26 25 22 16 2 7 25 21 18 19 21 20 20 21 21 20 18 17 16 17 16 15 13 12 11 11 10 10 9 8 7 7 8 9 8 7 6 8
6 7 9 7 22 13 12 23 23 11 2 17 23 18 25 20 19 18 19 18 19 18 17 15 14 15 13 12 11 11 10 10 9 8 8 7 7 7 8 7 6 6 6 7
6 7 6 12 12 4 10 15 16 7 9 8 24 21 22 20 18 17 16 18 17 16 15 13 14 13 12 11 11 10 9 8 7 8 8 8 7 6 6 4 4 4 5 7
5 5 5 5 5 18 12 20 18 11 4 17 25 23 26 23 23 15 14 15 16 14 14 13 12 11 11 11 9 8 8 7 7 8 8 7 7 6 5 5 5 5 7 7
8 4 6 10 8 4 11 11 9 5 4 11 25 29 29 27 13 8 14 14 15 15 13 12 11 10 11 10 9 8 7 7 8 8 8 7 5 5 4 5 5 6 6 6
5 5 10 8 5 6 11 15 8 10 9 15 22 22 22 9 14 20 17 16 17 14 14 12 11 12 12 11 9 9 7 8 9 8 6 5 5 5 4 5 5 6 7 6
5 5 4 3 5 5 19 9 2 5 20 21 22 18 21 25 24 20 18 15 15 15 13 12 13 12 11 10 8 7 8 8 7 6 6 6 6 6 4 5 5 6 7 7
4 5 2 6 4 4 9 8 10 14 19 19 20 21 25 23 22 19 16 14 15 14 12 12 12 11 10 9 9 8 9 9 8 6 6 6 5 5 4 5 5 5 7 8
5 11 4 3 9 12 12 17 15 17 19 19 20 20 21 24 20 17 15 13 14 13 13 12 11 10 9 9 9 9 10 9 7 6 6 6 6 5 3 3 5 7 9 9
4 8 5 6 8 12 15 14 16 21 22 23 20 19 20 18 16 15 14 13 14 14 13 11 10 9 9 9 9 9 9 8 6 5 6 6 6 5 4 5 6 6 10 11
9 4 2 4 10 12 7 10 15 19 19 17 19 17 18 18 16 17 14 16 15 14 12 11 10 9 8 7 7 8 9 10 9 7 7 8 6 5 6 4 2 7 7 13
Wind_Direction
202 210 210 204 210 224 216 210 224 205 185 212 217 217 214 171 190 217 222 217 217 217 217 190 189 189 180 190 185 183 184 186 183 188 195 203 207 208 212 216 210 210 220 233
173 219 217 216 210 217 230 228 209 187 182 207 208 218 231 226 224 216 215 205 201 203 198 169 166 177 185 186 188 183 183 183 186 189 192 196 203 205 216 206 193 191 199 221
203 225 229 222 218 210 218 220 200 202 190 216 192 217 228 230 228 221 216 210 191 190 189 176 164 176 184 186 182 177 178 178 176 173 165 158 158 162 194 201 205 222 240 255
225 222 210 212 215 202 206 204 192 202 182 195 204 215 206 216 205 212 210 203 197 194 204 209 181 171 177 176 173 167 168 166 161 162 170 178 195 195 172 163 160 179 265 263
217 217 216 205 212 197 215 187 196 174 199 184 189 242 186 205 205 202 203 199 189 177 188 202 191 151 156 146 153 157 162 164 166 172 171 166 175 166 161 143 117 113 95 83
230 206 221 213 204 204 201 183 197 196 204 213 205 219 170 192 207 197 193 169 169 177 169 157 139 126 129 138 140 144 148 148 153 156 157 165 163 165 148 126 131 115 109 80
215 228 204 206 187 193 206 164 176 188 192 218 199 196 358 127 186 170 163 161 152 163 150 145 135 111 117 124 129 126 125 121 125 126 125 126 123 114 114 117 111 108 90 67
200 206 213 187 200 182 197 181 180 180 192 184 182 206 161 107 100 118 99 117 119 112 110 113 115 121 123 120 115 115 114 112 111 109 106 105 106 108 105 97 94 78 70 57
201 211 190 194 187 184 187 200 200 193 191 161 168 132 122 122 122 132 127 111 106 112 109 114 112 110 108 108 108 110 109 107 105 103 100 96 96 95 92 86 78 69 56 42
202 202 186 179 190 191 194 198 207 225 178 172 177 178 155 160 146 134 122 118 119 113 106 106 105 104 103 103 105 104 103 101 101 99 96 95 94 93 89 79 68 61 47 31
264 191 178 190 193 190 196 196 206 216 189 176 166 172 127 151 149 139 130 125 120 110 108 105 107 108 107 105 103 102 100 99 95 95 96 96 92 86 80 74 63 51 31 16
231 182 172 192 175 198 206 201 203 204 185 202 162 110 284 114 134 130 125 119 112 109 108 105 104 103 100 99 99 96 96 94 94 96 93 88 83 78 72 62 47 28 12 360
208 205 158 177 215 203 182 206 192 201 197 186 171 133 103 114 116 123 122 117 114 114 110 108 106 101 99 96 94 92 90 88 89 88 85 78 74 69 61 46 23 7 355 351
234 188 161 205 185 178 188 190 193 184 191 181 184 137 137 129 129 128 124 122 120 117 115 112 104 97 94 94 91 88 84 80 77 76 75 72 58 45 33 19 4 353 348 345
252 164 107 290 149 168 189 189 190 190 206 187 139 148 146 143 140 136 131 128 125 118 114 109 102 99 97 92 88 83 76 69 63 61 53 43 31 21 10 3 352 350 350 339
317 140 141 153 140 177 174 179 190 193 175 163 145 130 133 130 129 132 135 136 126 121 116 109 104 97 90 83 78 72 62 52 44 42 35 24 14 8 1 357 348 338 346 341
318 149 171 131 136 147 180 176 181 149 254 150 150 130 130 131 133 135 136 126 126 120 114 104 94 86 79 70 61 53 44 39 35 32 24 13 8 2 357 348 338 347 348 331
278 156 77 132 131 140 139 193 178 173 97 95 113 135 130 126 121 125 131 125 120 116 108 99 94 86 72 62 54 48 38 34 33 31 21 12 356 350 346 331 341 343 342 356
21 104 107 135 134 110 114 156 175 154 83 122 130 125 123 116 103 81 108 119 110 101 99 89 76 75 69 58 49 46 39 32 31 27 15 359 349 346 338 340 343 347 347 350
43 212 128 145 114 125 95 50 8 122 108 158 147 147 143 146 142 141 120 111 111 100 88 86 77 74 69 54 49 47 40 31 24 11 3 346 341 334 325 335 336 345 344 349
11 65 93 87 97 70 360 330 304 195 142 137 136 140 155 167 116 132 126 116 105 100 96 92 82 70 58 50 47 45 31 20 0 357 341 331 337 335 331 332 334 352 350 4
47 348 27 340 105 101 348 313 279 88 130 134 143 140 115 115 118 122 119 112 104 97 92 86 79 69 59 53 49 43 31 4 359 349 347 345 342 340 332 329 346 7 9 14
55 21 60 26 57 12 357 39 93 123 122 120 124 130 124 122 121 121 115 108 98 99 100 89 83 75 62 53 43 36 18 8 3 356 353 354 343 342 340 337 2 20 21 14
31 6 80 161 31 32 44 43 79 94 103 104 106 114 117 118 114 112 110 110 107 99 89 86 81 73 65 50 42 30 13 6 2 0 7 357 348 347 3 12 20 31 26 14
352 315 76 86 114 81 43 68 85 93 94 96 94 99 107 107 106 111 108 105 99 94 87 81 78 70 59 47 39 29 17 11 7 22 19 16 4 6 22 56 32 42 39 39
342 322 317 61 67 97 61 67 93 95 94 90 102 104 104 105 108 109 101 98 94 89 90 84 75 68 60 51 44 35 29 27 28 24 20 19 17 18 28 26 66 48 51 42